Weather in Mezhdurechye

Russia / Kaliningrad Oblast     54°48′03″N   22°09′00″E
temp.,
°C
wind,
m/s
gust,
m/s
humid.,
%
clouds,
%
prec.,
mm/h
press.,
hPa
HPBL,
m
13 april, tue
tue1323:00+3wnw61090100 0.0 1021483
02:00+3nw51191100 0.6 1022567
05:00+4nw3886100 0.0 1023542
08:00+5nnw4779100 0.1 1023483
11:00+5nnw6868100 0.3 10241074
14:00+6nnw4764100 0.8 10241237
17:00+5nnw4662100 0.3 1023947
20:00+4nw4770100 0.3 1023321
14 april, wed
wed1423:00+3nw3783100 0.0 1023323
02:00+2nw3688100 0.0 1022278
05:00+2nw3691100 0.0 1021252
08:00+4n3576100 0.0 1021386
11:00+7n4655100 0.0 10211120
14:00+8nne5847100 0.0 10201808
17:00+8nne5959100 0.0 10201502
20:00+6ene5966100 0.0 1021720
15 april, thu
thu1523:00+4nne61289100 0.1 1020815
02:00+3nne71397100 0.8 1020766
05:00+3nne61292100 0.6 1019744
08:00+4ne61387100 0.8 1020659
11:00+4ne61288100 1.3 1020596
14:00+5ne71285100 1.8 1020741
17:00+5ne61483100 0.0 1020798
20:00
16 april, fri
fri1623:00+4ne51192100 0.5 1020649
02:00+5nne41093100 0.5 1020520
05:00+5nne51194100 0.2 1019521
08:00+5nne51094100 1.7 1020505
11:00+5ne51094100 0.4 1020514
14:00+6ne5993100 0.5 1020497
17:00+9ne5986100 0.0 1020552
20:00+9ne51286100 0.1 1022530
17 april, sat
sat1723:00+8ne51294100 0.9 1021552
02:00+8ne51092100 1.1 1021407
05:00+7ne51193100 0.0 1022332
08:00+7ene61189100 0.0 1023405
11:00+12ene6877100 0.0 1024704
14:00+14e6867100 0.0 10241188
17:00+13ene5971100 0.0 1025811
20:00+12e51078100 0.0 1026524